Skip Page Navigation
NASA JPL Caltech
NASA Logo - Jet Propulsion Laboratory + View the NASA Portal
+ Center for Near-Earth Object Studies
JPL Home Earth Solar System Stars & Galaxies Technology
JPL Solar System Dynamics
BODIES ORBITS EPHEMERIDES TOOLS PHYSICAL DATA DISCOVERY FAQ SITE MAP
JPL Small-Body Database Browser
Search: [ help ]  
101301 (1998 SH130)
Classification: Main-belt Asteroid          SPK-ID: 2101301
Ephemeris | Orbit Diagram | Orbital Elements | Mission Design | Physical Parameters | Discovery Circumstances | Close-Approach Data ]

[ show orbit diagram ]
Orbital Elements at Epoch 2459000.5 (2020-May-31.0) TDB
Reference: JPL 14 (heliocentric ecliptic J2000)
 Element Value Uncertainty (1-sigma)   Units 
e .1421575907114974 8.1442e-08  
a 2.57328487992572 1.9365e-08 au
q 2.207472901181154 2.0617e-07 au
i 15.15823689286684 9.7175e-06 deg
node 18.30204271835662 2.5669e-05 deg
peri 302.9311205000048 3.8992e-05 deg
M 133.9906265944947 3.5959e-05 deg
tp 2458439.320049466225
(2018-Nov-16.82004947)
0.00014611 TDB
period 1507.753096815951
4.13
1.7019e-05
4.66e-08
d
yr
n .2387658833268141 2.6952e-09 deg/d
Q 2.939096858670285 2.2118e-08 au
  Orbit Determination Parameters
   # obs. used (total)      459  
   data-arc span      7794 days (21.34 yr)  
   first obs. used      1998-09-26  
   last obs. used      2020-01-28  
   planetary ephem.      DE431  
   SB-pert. ephem.      SB431-N16  
   condition code      0  
   norm. resid. RMS      .57019  
   source      ORB  
   producer      Otto Matic  
   solution date      2020-Feb-24 01:18:30  

Additional Information
 Earth MOID = 1.23535 au 
 Jupiter MOID = 2.54057 au 
 T_jup = 3.366 
[ show covariance matrix ]

Ephemeris | Orbit Diagram | Orbital Elements | Mission Design | Physical Parameters | Discovery Circumstances | Close-Approach Data ]

Physical Parameter Table
Parameter Symbol Value Units Sigma Reference Notes
absolute magnitude H 15.4   n/a MPO459474  
diameter diameter 2.449 km 0.609 urn:nasa:pds:neowise_diameters_albedos::2.0[mainbelt] (http://adsabs.harvard.edu/abs/2011ApJ...741...68M)  
geometric albedo albedo 0.245   0.084 urn:nasa:pds:neowise_diameters_albedos::2.0[mainbelt] (http://adsabs.harvard.edu/abs/2011ApJ...741...68M)  

101301 (1998 SH130)          Discovered 1998-Sep-26 by LINEAR at Socorro
Reference: 20051019/Numbers.arcLast Updated: 2005-10-26

[ show close-approach data ]
Ephemeris | Orbit Diagram | Orbital Elements | Mission Design | Physical Parameters | Discovery Circumstances | Close-Approach Data ]
ABOUT SSD CREDITS/AWARDS PRIVACY/COPYRIGHT GLOSSARY LINKS
FirstGov 2020-Nov-26 22:46 UT
(server date/time)  
NASA Home Page
Site Manager:   Ryan S. Park
Webmaster  Alan B. Chamberlin